KLM1434 LFLL-EHAM

Flight info

Callsign KLM1434
Flight time N/A
Altitude 36000
Route BUSIL DCT AMORO DCT MOMIL DCT BAGBI DCT SIZZA DCT LAULY DCT BRY DCT CLM DCT NURMO DCT LUMIL DCT BELOB UY873 DENUT
Aircraft B738/M-SDE2E3FGHIRWXY/LB1

Departure

Time 2026-04-28 19:43
Airport Lyon Saint-Exupéry Airport (LFLL)

Arrival

Time N/A
Airport Amsterdam Airport Schiphol (EHAM)
Time Latitude Longitude Altitude Speed Heading
2026-04-28 19:08 45.71850 5.08292 829 ft 0 kts 105°
2026-04-28 19:38 45.71850 5.08293 829 ft 0 kts 105°
2026-04-28 19:38 45.71846 5.08316 829 ft 6 kts 105°
2026-04-28 19:38 45.71823 5.08401 829 ft 9 kts 98°
2026-04-28 19:38 45.71849 5.08469 829 ft 8 kts
2026-04-28 19:39 45.71925 5.08464 829 ft 16 kts 356°
2026-04-28 19:39 45.72081 5.08443 829 ft 26 kts 355°
2026-04-28 19:39 45.72259 5.08424 829 ft 25 kts 356°
2026-04-28 19:39 45.72434 5.08402 829 ft 25 kts 356°
2026-04-28 19:40 45.72604 5.08375 829 ft 24 kts 353°
2026-04-28 19:40 45.72771 5.08358 829 ft 24 kts 356°
2026-04-28 19:40 45.72947 5.08339 829 ft 26 kts 355°
2026-04-28 19:40 45.73136 5.08314 829 ft 28 kts 355°
2026-04-28 19:41 45.73334 5.08291 829 ft 28 kts 355°
2026-04-28 19:41 45.73527 5.08267 829 ft 27 kts 355°
2026-04-28 19:41 45.73691 5.08254 829 ft 14 kts 11°
2026-04-28 19:41 45.73739 5.08369 829 ft 15 kts 94°
2026-04-28 19:42 45.73713 5.08532 829 ft 18 kts 104°
2026-04-28 19:42 45.73684 5.08678 829 ft 10 kts 121°
2026-04-28 19:42 45.73618 5.08721 829 ft 11 kts 173°
2026-04-28 19:42 45.73497 5.08739 829 ft 34 kts 174°
2026-04-28 19:43 45.73003 5.08798 829 ft 104 kts 175°
2026-04-28 19:43 45.72091 5.08909 829 ft 158 kts 174°
2026-04-28 19:43 45.70918 5.09041 1259 ft 170 kts 174°
2026-04-28 19:43 45.69763 5.09138 1940 ft 172 kts 175°
2026-04-28 19:44 45.68543 5.09232 2491 ft 183 kts 174°
2026-04-28 19:44 45.67229 5.09432 3045 ft 198 kts 171°
2026-04-28 19:44 45.65872 5.10010 3555 ft 216 kts 146°
2026-04-28 19:44 45.64901 5.11655 4325 ft 223 kts 110°
2026-04-28 19:45 45.64729 5.13797 5212 ft 227 kts 81°
2026-04-28 19:45 45.65353 5.15878 6005 ft 235 kts 52°
2026-04-28 19:45 45.66578 5.17410 6812 ft 240 kts 27°
2026-04-28 19:45 45.68156 5.18147 7614 ft 244 kts
2026-04-28 19:46 45.69835 5.18521 8426 ft 247 kts
2026-04-28 19:46 45.71556 5.18911 9232 ft 251 kts
2026-04-28 19:46 45.73275 5.19369 10011 ft 255 kts
2026-04-28 19:46 45.75027 5.19657 10743 ft 257 kts 355°
2026-04-28 19:47 45.76753 5.19087 11343 ft 262 kts 330°
2026-04-28 19:47 45.78341 5.17735 11919 ft 271 kts 323°
2026-04-28 19:47 45.79927 5.16216 12442 ft 284 kts 323°
2026-04-28 19:47 45.81637 5.14674 12914 ft 300 kts 325°
2026-04-28 19:48 45.83480 5.13102 13396 ft 315 kts 326°
2026-04-28 19:48 45.85428 5.11479 13847 ft 330 kts 327°
2026-04-28 19:48 45.87465 5.09789 14294 ft 345 kts 327°
2026-04-28 19:48 45.89576 5.08031 14702 ft 361 kts 327°
2026-04-28 19:49 45.91780 5.06190 15101 ft 376 kts 327°
2026-04-28 19:49 45.94072 5.04233 15583 ft 389 kts 326°
2026-04-28 19:49 45.96371 5.02197 16179 ft 396 kts 325°
2026-04-28 19:49 45.98726 5.00066 16925 ft 400 kts 325°
2026-04-28 19:50 46.03441 4.95769 18500 ft 403 kts 326°
2026-04-28 19:50 46.05802 4.93626 19217 ft 406 kts 325°
2026-04-28 19:50 46.08205 4.91446 19917 ft 410 kts 324°
2026-04-28 19:51 46.10605 4.89270 20615 ft 412 kts 325°
2026-04-28 19:51 46.13064 4.87039 21167 ft 418 kts 324°
2026-04-28 19:51 46.15527 4.84799 21723 ft 423 kts 325°
2026-04-28 19:51 46.18024 4.82529 22344 ft 426 kts 324°
2026-04-28 19:52 46.20510 4.80269 22964 ft 429 kts 324°
2026-04-28 19:52 46.23058 4.77954 23585 ft 432 kts 324°
2026-04-28 19:52 46.25578 4.75661 24134 ft 435 kts 324°
2026-04-28 19:52 46.28152 4.73315 24714 ft 438 kts 324°
2026-04-28 19:53 46.30735 4.70966 25272 ft 441 kts 324°
2026-04-28 19:53 46.33338 4.68629 25873 ft 443 kts 324°
2026-04-28 19:53 46.35964 4.66291 26445 ft 445 kts 324°
2026-04-28 19:53 46.38599 4.63953 26915 ft 449 kts 324°
2026-04-28 19:54 46.41246 4.61604 27387 ft 452 kts 324°
2026-04-28 19:54 46.43959 4.59232 27879 ft 456 kts 326°
2026-04-28 19:54 46.46782 4.57142 28292 ft 464 kts 332°
2026-04-28 19:54 46.49833 4.55601 28805 ft 471 kts 341°
2026-04-28 19:55 46.53080 4.54725 29164 ft 481 kts 350°
2026-04-28 19:55 46.56432 4.54568 29749 ft 484 kts 358°
2026-04-28 19:55 46.59781 4.54926 30537 ft 481 kts
2026-04-28 19:55 46.63075 4.55534 31121 ft 480 kts
2026-04-28 19:56 46.66357 4.56252 31664 ft 480 kts
2026-04-28 19:56 46.69639 4.57001 32185 ft 479 kts
2026-04-28 19:56 46.72930 4.57746 32637 ft 479 kts
2026-04-28 19:56 46.76227 4.58470 33170 ft 477 kts
2026-04-28 19:57 46.79485 4.58973 33638 ft 473 kts 359°
2026-04-28 19:57 46.82759 4.59016 34094 ft 468 kts 353°
2026-04-28 19:57 46.85942 4.58580 34505 ft 463 kts 346°
2026-04-28 19:57 46.89093 4.57655 34857 ft 458 kts 340°
2026-04-28 19:58 46.92075 4.56288 35165 ft 453 kts 334°
2026-04-28 19:58 46.94930 4.54469 35512 ft 447 kts 328°
2026-04-28 19:58 46.97641 4.52219 35828 ft 442 kts 323°
2026-04-28 19:58 47.00196 4.49794 35993 ft 443 kts 321°
2026-04-28 19:59 47.02792 4.47339 36000 ft 445 kts 323°
2026-04-28 19:59 47.08126 4.42827 36000 ft 444 kts 327°
2026-04-28 20:00 47.13652 4.38775 35999 ft 448 kts 329°
2026-04-28 20:00 47.19327 4.34921 35999 ft 448 kts 330°
2026-04-28 20:01 47.25004 4.31164 36005 ft 447 kts 330°
2026-04-28 20:01 47.30636 4.27451 36001 ft 447 kts 330°
2026-04-28 20:02 47.36289 4.23714 36000 ft 446 kts 330°
2026-04-28 20:02 47.41953 4.19958 35999 ft 447 kts 330°
2026-04-28 20:03 47.47622 4.16185 35998 ft 448 kts 330°
2026-04-28 20:03 47.53254 4.12427 35996 ft 447 kts 330°
2026-04-28 20:04 47.58918 4.08643 35996 ft 447 kts 330°
2026-04-28 20:04 47.64579 4.04858 35988 ft 446 kts 330°
2026-04-28 20:05 47.70228 4.01074 35991 ft 446 kts 330°
2026-04-28 20:05 47.75853 3.97296 35983 ft 445 kts 330°
2026-04-28 20:06 47.81455 3.93522 35985 ft 446 kts 330°
2026-04-28 20:06 47.87096 3.89712 35984 ft 447 kts 330°
2026-04-28 20:07 47.92755 3.85885 35984 ft 446 kts 330°
2026-04-28 20:07 47.98382 3.82068 35968 ft 446 kts 330°
2026-04-28 20:08 48.04014 3.78237 35982 ft 447 kts 330°
2026-04-28 20:08 48.09656 3.74390 35998 ft 447 kts 330°
2026-04-28 20:09 48.15056 3.70046 35992 ft 440 kts 320°
2026-04-28 20:09 48.19649 3.64125 35993 ft 435 kts 310°
2026-04-28 20:10 48.23754 3.57574 35992 ft 433 kts 307°
2026-04-28 20:10 48.27776 3.50877 35998 ft 433 kts 307°
2026-04-28 20:11 48.31815 3.44167 36003 ft 435 kts 308°
2026-04-28 20:11 48.35865 3.37481 36001 ft 436 kts 308°
2026-04-28 20:12 48.40135 3.31033 35994 ft 441 kts 315°
2026-04-28 20:12 48.45431 3.26195 36006 ft 450 kts 329°
2026-04-28 20:13 48.51178 3.22424 36009 ft 456 kts 333°
2026-04-28 20:13 48.57039 3.18829 36011 ft 454 kts 333°
2026-04-28 20:14 48.62886 3.15208 36019 ft 457 kts 333°
2026-04-28 20:14 48.68713 3.11536 36024 ft 456 kts 332°
2026-04-28 20:15 48.74568 3.07794 36025 ft 456 kts 333°
2026-04-28 20:15 48.80399 3.04051 36012 ft 458 kts 333°
2026-04-28 20:16 48.86436 3.00889 36021 ft 462 kts 341°
2026-04-28 20:16 48.92744 2.98918 36030 ft 466 kts 347°
2026-04-28 20:17 48.99137 2.97344 36020 ft 467 kts 347°
2026-04-28 20:17 49.05555 2.95793 36030 ft 468 kts 347°
2026-04-28 20:18 49.11942 2.94204 36022 ft 468 kts 347°
2026-04-28 20:18 49.18386 2.92556 36043 ft 468 kts 347°
2026-04-28 20:19 49.24764 2.90900 36041 ft 469 kts 347°
2026-04-28 20:19 49.31207 2.89213 36040 ft 468 kts 348°
2026-04-28 20:20 49.37606 2.87530 36055 ft 468 kts 348°
2026-04-28 20:20 49.43994 2.85843 36063 ft 467 kts 348°
2026-04-28 20:21 49.50368 2.84154 36061 ft 468 kts 348°
2026-04-28 20:21 49.56763 2.82455 36074 ft 468 kts 348°
2026-04-28 20:22 49.63187 2.80742 36082 ft 467 kts 348°
2026-04-28 20:22 49.69564 2.79037 36076 ft 466 kts 349°
2026-04-28 20:23 49.75914 2.77336 36082 ft 468 kts 349°
2026-04-28 20:23 49.82372 2.76224 36087 ft 467 kts 359°
2026-04-28 20:24 49.88785 2.77369 36096 ft 467 kts 11°
2026-04-28 20:24 49.95112 2.79586 36099 ft 468 kts 13°
2026-04-28 20:25 50.01412 2.82004 36106 ft 466 kts 13°
2026-04-28 20:25 50.07726 2.84398 36120 ft 468 kts 13°
2026-04-28 20:26 50.14019 2.86736 36120 ft 466 kts 13°
2026-04-28 20:26 50.20316 2.89045 36121 ft 466 kts 13°
2026-04-28 20:27 50.26588 2.91328 36132 ft 465 kts 13°
2026-04-28 20:27 50.32852 2.93605 36140 ft 464 kts 14°
2026-04-28 20:28 50.39143 2.96014 36140 ft 464 kts 17°
2026-04-28 20:28 50.45131 2.99484 36156 ft 459 kts 26°
2026-04-28 20:29 50.50792 3.04001 36154 ft 457 kts 30°
2026-04-28 20:29 50.56341 3.08789 36161 ft 453 kts 31°
2026-04-28 20:30 50.61782 3.13506 36161 ft 445 kts 31°
2026-04-28 20:30 50.67250 3.18222 36171 ft 449 kts 30°